TimeEDT,TemperatureF,Dew PointF,Humidity,Sea Level PressureIn,VisibilityMPH,Wind Direction,Wind SpeedMPH,Gust SpeedMPH,PrecipitationIn,Events,Conditions,WindDirDegrees,DateUTC
12:53 AM,57.0,55.0,93,30.11,10.0,North,4.6,-,N/A,,Mostly Cloudy,360,2013-08-24 04:53:00
1:53 AM,55.9,54.0,93,30.11,10.0,North,4.6,-,N/A,,Clear,350,2013-08-24 05:53:00
2:53 AM,57.9,55.9,93,30.13,10.0,NNW,4.6,-,N/A,,Clear,340,2013-08-24 06:53:00
3:53 AM,62.1,57.9,86,30.14,10.0,North,6.9,-,N/A,,Clear,10,2013-08-24 07:53:00
4:53 AM,64.0,59.0,84,30.15,10.0,NNE,10.4,-,N/A,,Clear,20,2013-08-24 08:53:00
5:53 AM,63.0,55.9,78,30.19,10.0,NNE,8.1,-,N/A,,Clear,20,2013-08-24 09:53:00
6:53 AM,64.0,55.0,73,30.21,10.0,NNE,9.2,-,N/A,,Clear,20,2013-08-24 10:53:00
7:53 AM,68.0,55.9,65,30.23,10.0,NNE,12.7,-,N/A,,Clear,20,2013-08-24 11:53:00
8:53 AM,70.0,55.9,61,30.24,10.0,NE,13.8,-,N/A,,Clear,40,2013-08-24 12:53:00
9:53 AM,72.0,52.0,49,30.25,10.0,NE,17.3,20.7,N/A,,Partly Cloudy,40,2013-08-24 13:53:00
10:53 AM,73.0,50.0,44,30.27,10.0,NE,13.8,25.3,N/A,,Clear,40,2013-08-24 14:53:00
11:53 AM,73.0,48.9,42,30.27,10.0,North,17.3,21.9,N/A,,Clear,10,2013-08-24 15:53:00
12:53 PM,73.9,48.0,40,30.28,10.0,NE,17.3,24.2,N/A,,Clear,50,2013-08-24 16:53:00
1:53 PM,73.0,46.9,39,30.29,10.0,NE,16.1,23.0,N/A,,Clear,50,2013-08-24 17:53:00
2:53 PM,73.9,46.0,37,30.28,10.0,NE,13.8,20.7,N/A,,Clear,40,2013-08-24 18:53:00
3:53 PM,73.0,46.0,38,30.29,10.0,NE,11.5,18.4,N/A,,Clear,50,2013-08-24 19:53:00
4:53 PM,72.0,48.9,44,30.28,10.0,NE,10.4,-,N/A,,Clear,40,2013-08-24 20:53:00
5:53 PM,70.0,46.0,42,30.29,10.0,NNE,6.9,-,N/A,,Clear,30,2013-08-24 21:53:00
6:53 PM,64.9,46.9,52,30.29,10.0,NNE,4.6,-,N/A,,Clear,20,2013-08-24 22:53:00
7:53 PM,54.0,48.0,80,30.30,10.0,North,4.6,-,N/A,,Clear,10,2013-08-24 23:53:00
8:53 PM,48.9,45.0,86,30.32,10.0,Calm,Calm,-,N/A,,Clear,0,2013-08-25 00:53:00
9:53 PM,46.9,43.0,86,30.33,10.0,Calm,Calm,-,N/A,,Clear,0,2013-08-25 01:53:00
10:53 PM,44.1,42.1,93,30.33,10.0,Calm,Calm,-,N/A,,Clear,0,2013-08-25 02:53:00
11:53 PM,44.1,41.0,89,30.34,10.0,Calm,Calm,-,N/A,,Clear,0,2013-08-25 03:53:00